Printer-friendly version
Follow the MPC on Twitter Follow the MPC on Facebook The MPC blog
Minor Planet Center

MPEC 2008-E33 : 2008 ES

The following Minor Planet Electronic Circular may be linked-to from your own Web pages, but must not otherwise be redistributed electronically.

A form allowing access to any MPEC is at the bottom of this page.


Read MPEC 2008-E32 Read MPEC 2008-E34


M.P.E.C. 2008-E33                                Issued 2008 Mar. 3, 13:30 UT

     The Minor Planet Electronic Circulars contain information on unusual
         minor planets and routine data on comets.  They are published
   on behalf of Commission 20 of the International Astronomical Union by the
          Minor Planet Center, Smithsonian Astrophysical Observatory,
                          Cambridge, MA 02138, U.S.A.

             Prepared using the Tamkin Foundation Computer Network

                              MPC@CFA.HARVARD.EDU
          URL http://www.cfa.harvard.edu/iau/mpc.html  ISSN 1523-6714

                                    2008 ES

Observations:
     K08E00S* C2008 03 02.44330 12 13 06.88 +10 26 29.6          20.0 V EE033G96
     K08E00S  C2008 03 02.45001 12 13 06.42 +10 26 37.5          20.0 V EE033G96
     K08E00S  C2008 03 02.45681 12 13 05.91 +10 26 45.4          19.7 V EE033G96
     K08E00S  C2008 03 02.46358 12 13 05.44 +10 26 53.2          20.0 V EE033G96
     K08E00S  C2008 03 02.50998 12 13 02.23 +10 27 45.6          20.0 V EE033G96
     K08E00S  C2008 03 02.51396 12 13 01.96 +10 27 50.0          20.1 V EE033G96
     K08E00S  C2008 03 02.51791 12 13 01.68 +10 27 54.5          20.1 V EE033G96
     K08E00S  C2008 03 03.15507 12 12 18.52 +10 40 06.4                 EE033J95
     K08E00S  C2008 03 03.16046 12 12 18.08 +10 40 12.8                 EE033J95
     K08E00S  C2008 03 03.16579 12 12 17.74 +10 40 18.3          19.8 R EE033J95
     K08E00S  C2008 03 03.27580 12 12 10.70 +10 42 31.0          20.0 R EE033854
     K08E00S  C2008 03 03.28156 12 12 10.20 +10 42 36.8          19.8 R EE033854
     K08E00S  C2008 03 03.35689 12 12 04.75 +10 44 05.0          19.2 V EE033G96
     K08E00S  C2008 03 03.36252 12 12 04.32 +10 44 12.1          18.9 V EE033G96
     K08E00S  C2008 03 03.36821 12 12 03.92 +10 44 17.7          19.0 V EE033G96
     K08E00S  C2008 03 03.37384 12 12 03.49 +10 44 25.1          20.0 V EE033G96

Observer details:
854 Sabino Canyon Observatory, Tucson.  Observer J. E. McGaha.  0.36-m f/10.0
    Schmidt-Cassegrain + CCD.
G96 Mt. Lemmon Survey.  Observer E. Beshore.  Measurers E. C. Beshore,
    A. Boattini, G. J. Garradd, A. R. Gibbs, A. D. Grauer, R. E. Hill,
    R. A. Kowalski, S. M. Larson, R. H. McNaught.  1.5-m reflector + CCD.
J95 Great Shefford.  Observer P. Birtwhistle.  0.40-m f/6.0 Schmidt-Cassegrain
    + CCD.

Orbital elements:
2008 ES                                                  Earth MOID = 0.1236 AU
Epoch 2008 May 14.0 TT = JDT 2454600.5                  MPC
M 345.45971              (2000.0)            P               Q
n   0.32621980     Peri.  169.87035     +0.45034999     +0.88701053
a   2.0899176      Node   126.82222     -0.82782926     +0.45760502
e   0.7151418      Incl.    7.31816     -0.33449008     +0.06172487
P   3.02           H   18.3           G   0.15           U   9
Residuals in seconds of arc
080302 G96  0.1+  0.3-    080302 G96  0.1+  0.0     080303 G96  0.4+  0.0
080302 G96  0.2+  0.0     080303 J95  0.3+  0.0     080303 G96  0.2+  0.5+
080302 G96  0.3-  0.2+    080303 J95  0.5-  0.2+    080303 G96  0.5+  0.5-
080302 G96  0.2-  0.3+    080303 J95  0.1+  0.5-    080303 G96  0.3+  0.3+
080302 G96  0.1+  0.1+    080303 854  0.1+  1.0+
080302 G96  0.2+  0.0     080303 854  1.0-  0.0

Ephemeris:
2008 ES                  a,e,i = 2.09, 0.72, 7                   q = 0.5953
Date    TT    R. A. (2000) Decl.     Delta      r     Elong.  Phase     V
2008 02 24    12 19.76   +08 20.0    0.927    1.859   151.9    14.5    20.3
2008 03 05    12 10.07   +11 16.9    0.791    1.763   162.8     9.6    19.7
2008 03 15    11 54.03   +15 05.8    0.679    1.662   166.6     8.0    19.1
2008 03 25    11 31.20   +19 33.3    0.593    1.558   155.8    15.2    19.0
2008 04 04    11 02.44   +24 08.4    0.534    1.449   139.7    26.5    18.9
2008 04 14    10 30.34   +28 11.4    0.495    1.336   122.6    39.3    19.0
2008 04 24    09 58.03   +31 19.2    0.469    1.219   105.7    52.6    19.0
2008 05 04    09 26.79   +33 34.8    0.446    1.099    89.5    66.5    19.1
2008 05 14    08 54.42   +35 15.9    0.420    0.978    73.4    82.3    19.2

Timothy B. Spahr             (C) Copyright 2008 MPC           M.P.E.C. 2008-E33

Read MPEC 2008-E32 Read MPEC 2008-E34


MPEC number:

Enter an MPEC number in one of the following forms:

  • 1997-B01 (the full form)
  • J97B01 (the packed version of the full form)
  • B01 (the abbreviated form)

Valid HTML 4.01!